Weather reports worldwide

Advertisment
Benson, United Kingdom (3658): temperature & dewpoint: 15.01.2020 04:00:00 - 21.01.2020 04:00:00 (GMT)Benson, United Kingdom (3658): temperature -20cm & temperature -100cm: 15.01.2020 04:00:00 - 21.01.2020 04:00:00 (GMT)Benson, United Kingdom (3658): wind speed & gusts: 15.01.2020 04:00:00 - 21.01.2020 04:00:00 (GMT)Benson, United Kingdom (3658): wind direction: 15.01.2020 04:00:00 - 21.01.2020 04:00:00 (GMT)Benson, United Kingdom (3658): reduced air pressure: 15.01.2020 04:00:00 - 21.01.2020 04:00:00 (GMT)Benson, United Kingdom (3658): visibility: 15.01.2020 04:00:00 - 21.01.2020 04:00:00 (GMT)Benson, United Kingdom (3658): precipitation: 15.01.2020 04:00:00 - 21.01.2020 04:00:00 (GMT)
Date & Time tt [°C] td [°C] tt -20cm [°C] tt -100cm [°C] ff [km/h] ff [kn] fx [km/h] fx [kn] dd ppp [hPa] vv [km] rr [mm]
21.01.2020 04:00:00 -4,3 -4,8 - - 2 1 - - WSW 1043,5 0,5 0,0
21.01.2020 03:00:00 -4,4 -4,7 - - 0 0 - - N 1043,8 0,1 0,0
21.01.2020 02:00:00 -4,8 -5,4 - - 2 1 - - S 1044,3 1,4 0,0
21.01.2020 01:00:00 -4,7 -5,2 - - 4 2 - - E 1044,6 5 0,0
21.01.2020 00:00:00 -4,4 -5,0 - - 0 0 - - N 1045,0 5 0,0
20.01.2020 23:00:00 -3,8 -4,2 - - 2 1 - - E 1045,6 4,5 0,0
20.01.2020 22:00:00 -4,2 -4,9 - - 2 1 - - E 1045,7 6 0,0
20.01.2020 21:00:00 -3,6 -4,2 - - 4 2 - - ENE 1045,7 6 0,0
20.01.2020 20:00:00 -2,1 -2,6 - - 2 1 - - ESE 1046,3 8 0,0
20.01.2020 19:00:00 -3,0 -3,7 - - 2 1 - - SE 1046,4 8 0,0
20.01.2020 18:00:00 -1,6 -3,2 - - 4 2 - - SE 1046,7 10 0,0
20.01.2020 17:00:00 2,9 1,0 - - 2 1 - - SSW 1046,4 10 0,0
20.01.2020 16:00:00 4,2 0,9 - - 9 5 - - S 1046,6 10 0,0
20.01.2020 15:00:00 6,3 1,6 - - 8 4 - - S 1047,1 10 0,0
20.01.2020 14:00:00 7,1 1,9 - - 4 2 - - SW 1047,4 10 0,0
20.01.2020 13:00:00 6,5 2,9 - - 2 1 - - W 1048,1 10 0,0
20.01.2020 12:00:00 3,4 1,8 - - 4 2 - - NW 1048,7 12 0,0
20.01.2020 11:00:00 2,2 2,1 - - 2 1 - - WSW 1049,5 9 0,0
20.01.2020 10:00:00 -0,3 -0,5 - - 2 1 - - ESE 1049,4 10 0,0
20.01.2020 09:00:00 -1,3 -1,5 5,2 7,7 2 1 - - SW 1049,4 10 0,0
20.01.2020 08:00:00 -1,8 -2,1 - - 0 0 - - N 1049,3 10 0,0
20.01.2020 07:00:00 -1,3 -1,6 - - 0 0 - - N 1049,3 10 0,0
20.01.2020 06:00:00 -1,2 -1,4 - - 2 1 - - S 1049,2 7 0,0
20.01.2020 05:00:00 -3,1 -3,6 - - 0 0 - - N 1048,9 10 0,0
20.01.2020 04:00:00 -3,0 -3,8 - - 4 2 - - ESE 1049,1 16 0,0
20.01.2020 03:00:00 -1,3 -1,6 - - 2 1 - - ESE 1049,2 10 0,0
20.01.2020 02:00:00 -1,7 -2,1 - - 4 2 - - S 1049,7 8 0,0
20.01.2020 01:00:00 -1,3 -1,7 - - 2 1 - - NNW 1049,7 15 0,0
20.01.2020 00:00:00 -2,3 -2,8 - - 2 1 - - E 1049,7 18 0,0
19.01.2020 23:00:00 -2,3 -2,7 - - 0 0 - - N 1049,8 11 0,0
19.01.2020 22:00:00 -3,3 -3,7 - - 8 4 - - E 1049,5 10 0,0
19.01.2020 21:00:00 -4,2 -5,0 - - 0 0 - - N 1049,4 10 0,0
19.01.2020 20:00:00 -3,4 -3,9 - - 2 1 - - ESE 1049,2 10 0,0
19.01.2020 19:00:00 -1,3 -1,5 - - 2 1 - - SSE 1049,1 9 0,0
19.01.2020 18:00:00 -1,5 -2,0 - - 8 4 - - E 1048,5 10 0,0
19.01.2020 17:00:00 -1,3 -2,9 - - 0 0 - - N 1047,9 10 0,0
19.01.2020 16:00:00 4,6 0,8 - - 0 0 - - N 1047,4 21 0,0
19.01.2020 15:00:00 5,5 1,2 - - 5 3 - - WNW 1047,0 10 0,0
19.01.2020 14:00:00 5,9 1,2 - - 4 2 - - SSW 1046,5 21 0,0
19.01.2020 13:00:00 4,0 1,5 - - 8 4 - - WNW 1046,5 19 0,0
19.01.2020 12:00:00 3,2 0,8 - - 8 4 - - W 1046,6 10 0,0
19.01.2020 11:00:00 3,1 2,4 - - 0 0 - - N 1046,7 7 0,0
19.01.2020 10:00:00 -0,8 -0,9 - - 2 1 - - WNW 1045,7 4,4 0,0
19.01.2020 09:00:00 -4,4 -4,8 6,0 8,0 2 1 - - NE 1045,0 7 0,0
19.01.2020 08:00:00 -5,7 -6,3 - - 4 2 - - ESE 1043,8 7 0,0
19.01.2020 07:00:00 -5,4 -5,9 - - 2 1 - - ESE 1042,7 6 0,0
19.01.2020 06:00:00 -5,6 -6,2 - - 2 1 - - SSE 1042,1 9 0,0
19.01.2020 05:00:00 -5,0 -5,4 - - 2 1 - - SSE 1041,2 10 0,0
19.01.2020 04:00:00 -4,5 -4,8 - - 4 2 - - SSE 1040,5 0,4 0,0
19.01.2020 03:00:00 -4,5 -5,0 - - 4 2 - - SE 1040,0 12 0,0
19.01.2020 02:00:00 -3,3 -3,7 - - 4 2 - - SSW 1038,9 10 0,0
19.01.2020 01:00:00 -3,2 -3,5 - - 4 2 - - S 1037,8 10 0,0
19.01.2020 00:00:00 -4,8 -5,6 - - 2 1 - - E 1037,2 10 0,0
18.01.2020 23:00:00 -3,8 -4,3 - - 4 2 - - N 1036,1 6 0,0
18.01.2020 22:00:00 -3,4 -3,9 - - 2 1 - - NW 1035,5 8 0,0
18.01.2020 21:00:00 -2,9 -3,4 - - 2 1 - - ESE 1034,9 6 0,0
18.01.2020 20:00:00 -2,4 -3,0 - - 4 2 - - S 1034,4 18 0,0
18.01.2020 19:00:00 -2,3 -3,2 - - 2 1 - - SE 1033,5 23 0,0
18.01.2020 18:00:00 -1,1 -1,9 - - 8 4 - - E 1032,4 10 0,0
18.01.2020 17:00:00 -0,3 -2,7 - - 2 1 - - NNE 1031,7 26 0,0
18.01.2020 16:00:00 5,0 1,3 - - 5 3 - - WNW 1030,7 30 0,0
18.01.2020 15:00:00 6,3 1,4 - - 9 5 - - NW 1030,0 10 0,0
18.01.2020 14:00:00 6,5 1,3 - - 11 6 - - NW 1029,4 30 0,0
18.01.2020 13:00:00 5,9 2,1 - - 9 5 - - WNW 1029,0 10 0,0
18.01.2020 12:00:00 4,8 1,6 - - 5 3 - - WNW 1028,6 30 0,0
18.01.2020 11:00:00 4,5 2,2 - - 2 1 - - S 1028,3 10 0,0
18.01.2020 10:00:00 2,2 2,0 - - 2 1 - - WSW 1027,6 10 0,0
18.01.2020 09:00:00 -2,6 -3,0 7,0 8,2 4 2 - - NNE 1027,2 10 0,0
18.01.2020 08:00:00 -1,6 -1,8 - - 4 2 - - W 1026,5 10 0,0
18.01.2020 07:00:00 -1,9 -2,1 - - 4 2 - - WNW 1025,9 14 0,0
18.01.2020 06:00:00 -2,2 -2,6 - - 2 1 - - SSW 1025,1 10 0,0
18.01.2020 05:00:00 -3,6 -4,3 - - 0 0 - - N 1024,1 7 0,0
18.01.2020 04:00:00 0,2 -0,1 - - 4 2 - - W 1023,5 10 0,0
18.01.2020 03:00:00 0,7 0,2 - - 0 0 - - N 1023,0 10 0,0
18.01.2020 02:00:00 2,3 1,6 - - 9 5 - - W 1022,5 10 0,0
18.01.2020 01:00:00 2,5 1,6 - - 9 5 - - W 1021,4 28 0,0
18.01.2020 00:00:00 1,6 1,0 - - 5 3 - - W 1020,8 10 0,0
17.01.2020 23:00:00 2,1 0,9 - - 9 5 - - WSW 1019,8 35 0,0
17.01.2020 22:00:00 1,0 -0,3 - - 4 2 - - SW 1019,0 30 0,0
17.01.2020 21:00:00 2,3 1,1 - - 8 4 - - SW 1018,2 10 0,0
17.01.2020 20:00:00 3,8 2,1 - - 15 8 - - SSW 1017,8 10 0,0
17.01.2020 19:00:00 3,4 1,9 - - 9 5 - - S 1017,4 35 0,0
17.01.2020 18:00:00 4,0 1,8 - - 13 7 - - SSW 1016,9 10 0,0
17.01.2020 17:00:00 4,2 2,0 - - 15 8 - - SW 1016,5 10 0,0
17.01.2020 16:00:00 5,6 2,2 - - 18 10 - - SW 1015,7 10 0,0
17.01.2020 15:00:00 6,6 2,9 - - 21 11 - - WSW 1015,0 10 0,0
17.01.2020 14:00:00 6,7 2,3 - - 18 10 - - WSW 1013,9 40 0,0
17.01.2020 13:00:00 6,9 1,8 - - 18 10 50 27 W 1012,8 10 0,0
17.01.2020 12:00:00 6,7 2,4 - - 37 20 57 31 W 1011,6 10 0,0
17.01.2020 11:00:00 7,5 4,5 - - 31 17 52 28 SW 1009,6 10 0,0
17.01.2020 10:00:00 7,7 5,2 - - 24 13 - - SSW 1008,7 10 0,0
17.01.2020 09:00:00 7,6 5,8 7,7 8,2 22 12 - - S 1008,2 10 0,0
17.01.2020 08:00:00 6,7 5,8 - - 18 10 - - S 1007,9 10 0,0
17.01.2020 07:00:00 7,5 6,6 - - 21 11 - - S 1007,6 10 0,0
17.01.2020 06:00:00 8,2 6,9 - - 18 10 - - S 1007,7 35 1,2
17.01.2020 05:00:00 8,8 7,7 - - 16 9 - - S 1007,4 9 0,8
17.01.2020 04:00:00 9,4 8,2 - - 15 8 - - S 1007,9 16 0,0
17.01.2020 03:00:00 9,2 8,1 - - 21 11 - - SSE 1008,3 18 0,0
17.01.2020 02:00:00 8,9 8,3 - - 15 8 - - S 1008,5 12 0,0
17.01.2020 01:00:00 9,2 8,1 - - 15 8 - - S 1008,7 13 0,0
17.01.2020 00:00:00 9,8 8,4 - - 15 8 - - S 1009,1 15 0,0
16.01.2020 23:00:00 10,4 8,7 - - 16 9 - - S 1009,1 17 0,0
16.01.2020 22:00:00 10,5 9,3 - - 18 10 - - S 1008,9 10 0,0
16.01.2020 21:00:00 10,5 9,6 - - 21 11 - - S 1008,6 10 1,8
16.01.2020 20:00:00 10,7 10,1 - - 22 12 - - S 1008,4 4,0 5,6
16.01.2020 19:00:00 10,7 9,7 - - 31 17 57 31 S 1008,0 7 0,8
16.01.2020 18:00:00 11,1 9,0 - - 39 21 59 32 S 1007,6 10 0,2
16.01.2020 17:00:00 10,5 8,6 - - 42 23 68 37 S 1007,7 20 0,2
16.01.2020 16:00:00 10,5 7,8 - - 48 26 72 39 SSE 1007,8 10 0,4
16.01.2020 15:00:00 10,0 7,4 - - 37 20 55 30 S 1009,3 10 0,4
16.01.2020 14:00:00 10,0 7,7 - - 31 17 55 30 SSE 1009,7 10 0,2
16.01.2020 13:00:00 9,7 7,7 - - 31 17 48 26 SSE 1010,8 10 0,4
16.01.2020 12:00:00 9,7 6,9 - - 29 16 50 27 SSE 1012,7 10 0,0
16.01.2020 11:00:00 9,2 6,7 - - 26 14 - - SSE 1013,9 10 0,0
16.01.2020 10:00:00 8,4 6,0 - - 26 14 - - SSE 1015,1 10 0,0
16.01.2020 09:00:00 7,5 5,6 7,5 8,2 28 15 - - SSE 1015,8 10 0,0
16.01.2020 08:00:00 7,0 5,2 - - 24 13 - - SSE 1015,8 10 0,0
16.01.2020 07:00:00 6,9 4,9 - - 24 13 - - SSE 1016,4 23 0,0
16.01.2020 06:00:00 6,7 4,8 - - 24 13 - - SSE 1017,1 10 0,0
16.01.2020 05:00:00 7,0 5,5 - - 24 13 - - SSE 1017,9 10 0,0
16.01.2020 04:00:00 6,6 5,3 - - 18 10 - - SSE 1018,6 10 0,0
16.01.2020 03:00:00 6,8 5,3 - - 21 11 - - S 1018,6 10 0,0
16.01.2020 02:00:00 6,4 5,3 - - 18 10 - - S 1018,5 10 0,0
16.01.2020 01:00:00 5,6 4,2 - - 15 8 - - S 1018,0 10 0,0
16.01.2020 00:00:00 5,8 4,2 - - 21 11 - - S 1017,9 10 0,0
15.01.2020 23:00:00 5,3 3,7 - - 18 10 - - S 1017,5 23 0,0
15.01.2020 22:00:00 5,6 3,4 - - 21 11 - - S 1016,9 23 0,0
15.01.2020 21:00:00 5,9 3,3 - - 16 9 - - S 1016,2 23 0,0
15.01.2020 20:00:00 4,9 2,7 - - 16 9 - - S 1015,6 10 0,0
15.01.2020 19:00:00 3,7 1,6 - - 13 7 - - S 1014,9 10 0,0
15.01.2020 18:00:00 4,7 2,5 - - 15 8 - - S 1013,6 30 0,0
15.01.2020 17:00:00 6,9 3,3 - - 15 8 - - SSW 1012,4 10 0,0
15.01.2020 16:00:00 7,9 2,7 - - 22 12 - - SW 1011,2 10 0,0
15.01.2020 15:00:00 9,0 3,3 - - 22 12 - - SW 1009,6 10 0,0
15.01.2020 14:00:00 8,8 5,1 - - 21 11 50 27 SW 1008,3 40 0,2
15.01.2020 13:00:00 8,3 6,3 - - 15 8 - - SSW 1007,1 10 0,2
15.01.2020 12:00:00 8,2 5,8 - - 21 11 - - SSW 1006,4 10 0,0
15.01.2020 11:00:00 6,7 4,9 - - 15 8 - - S 1005,3 10 0,0
15.01.2020 10:00:00 6,6 4,9 - - 16 9 - - S 1004,0 35 0,0
15.01.2020 09:00:00 6,7 5,2 7,9 8,2 13 7 - - S 1003,3 10 0,0
15.01.2020 08:00:00 6,7 5,5 - - 15 8 - - S 1001,9 10 0,0
15.01.2020 07:00:00 6,8 5,9 - - 16 9 - - S 1001,2 10 0,4
15.01.2020 06:00:00 6,6 5,9 - - 8 4 - - SSW 1000,8 13 0,2
15.01.2020 05:00:00 7,0 5,9 - - 9 5 - - SW 999,8 30 0,2
15.01.2020 04:00:00 7,2 6,1 - - 13 7 - - WSW 999,4 10 0,8

tt = temperature
td = dewpoint
tt -20cm = temperature -20cm
tt -100cm = temperature -100cm
ff = wind speed
fx = gusts
dd = wind direction
ppp = reduced air pressure
vv = visibility
rr = precipitation

Next stations